Weather Roundup
Issued by NWS

Home | Current Version | Previous Version | Graphics & Text | Print | Product List | Glossary Off
Versions: 1 2 3 4 5 6 7 8 9 10 11 12 13 14 15 16 17 18 19 20 21 22 23 24 25 26 27 28 29 30 31 32 33 34 35 36 37 38 39 40 41 42 43 44 45 46 47 48 49 50

000
NZUS93 KARX 192159
HRRWXR

CURRENT HOURLY OBSERVATIONS ACROSS
MUCH OF THE UPPER MISSISSIPPI VALLEY
NATIONAL WEATHER SERVICE LA CROSSE WI
400 PM CST FRI DEC 19 2014


...SOUTHEAST MINNESOTA...


CITY           SKY/WX    TMP DP  RH WIND       PRES   REMARKS
ROCHESTER      CLOUDY    28  22  78 S12       30.21R WCI  18
ROCHESTER/MAYO CLOUDY    28  20  72 SE9       30.21S WCI  19
WINONA         CLOUDY    30  23  74 SE5       30.26R WCI  25
AUSTIN         CLOUDY    28  25  86 S8        30.20R FOG     WCI  20
ALBERT LEA     CLOUDY    28  28 100 S9        30.18S FOG     WCI  20
DODGE CENTER   CLOUDY    28  27  93 S13       30.19S FOG     WCI  18
PRESTON        CLOUDY    27  21  78 S9        30.22R WCI  18
OWATONNA       PTCLDY    28  25  86 SE12      30.19R FOG     WCI  18
FARIBAULT      CLOUDY    30  27  86 S8        30.19R FOG     WCI  23
$$

...ELSEWHERE IN MINNESOTA...


CITY           SKY/WX    TMP DP  RH WIND       PRES   REMARKS
MINNEAPOLIS    CLOUDY    28  23  81 SE8       30.19S WCI  20
INTNL FALLS    CLOUDY    24  19  81 SE6       30.11S WCI  17
DULUTH         CLOUDY    24  20  84 SE8       30.15S WCI  15
RED WING       CLOUDY    28  23  80 SE7       30.22S WCI  21
REDWOOD FALLS  CLOUDY    33  28  81 S14       30.12R WCI  23
MANKATO        CLOUDY    30  25  80 S10       30.17R WCI  21
WORTHINGTON    CLOUDY    30  27  86 S13       30.11R WCI  20
FAIRMONT       CLOUDY    32  25  74 S13       30.15S WCI  22
$$

...SOUTHWEST WISCONSIN...


CITY           SKY/WX    TMP DP  RH WIND       PRES   REMARKS
LA CROSSE      CLOUDY    31  20  63 S6        30.27R WCI  25
PRAIRIE DU CHI CLOUDY    29  20  68 S3        30.29R
BOSCOBEL       CLOUDY    31  20  63 S3        30.29R
LONE ROCK      NOT AVBL
PLATTEVILLE    CLOUDY    29  22  73 CALM      30.29R
FORT MC COY    CLOUDY    29  19  66 CALM      30.26S
VIROQUA        CLOUDY    28  21  75 S5        30.23R WCI  23
WIS DELLS      NOT AVBL
$$

...ELSEWHERE IN WISCONSIN...


CITY           SKY/WX    TMP DP  RH WIND       PRES   REMARKS
MILWAUKEE      MOCLDY    31  18  58 SW5       30.28R WCI  26
MADISON        CLOUDY    26  20  77 CALM      30.28R
GREEN BAY      PTCLDY    30  21  69 S5        30.27S WCI  25
EAU CLAIRE     NOT AVBL
BLACK RVR FLS  CLOUDY    30  19  63 CALM      30.24S
MEDFORD        CLOUDY    22  20  94 S3        30.21F
WAUSAU         MOCLDY    25  17  72 SW6       30.22S WCI  18
WIS RAPIDS     CLOUDY    24  19  81 SW7       30.27S WCI  16
MARSHFIELD     CLOUDY    24  20  84 S6        30.24R WCI  17
RICE LAKE      CLOUDY    27  21  79 SE8       30.22S WCI  18
$$

...NORTHEAST IOWA...


CITY           SKY/WX    TMP DP  RH WIND       PRES   REMARKS
DECORAH        CLOUDY    28  21  74 SE7       30.23R WCI  21
MASON CITY     CLOUDY    30  27  88 SE9       30.21S FOG     WCI  22
CHARLES CITY   CLOUDY    30  25  80 SE9       30.23R WCI  22
OELWEIN        CLOUDY    30  21  69 S9        30.26R WCI  22
$$

...ELSEWHERE IN IOWA...


CITY           SKY/WX    TMP DP  RH WIND       PRES   REMARKS
DES MOINES     CLOUDY    33  28  81 SE8       30.22S WCI  26
IOWA CITY      CLOUDY    30  21  69 S6        30.30S WCI  24
FORT DODGE     CLOUDY    32  27  80 S8        30.19S WCI  25
$$

...NORTHERN ILLINOIS...


CITY           SKY/WX    TMP DP  RH WIND       PRES   REMARKS
CHICAGO-OHARE  CLOUDY    31  22  69 S3        30.30R
CHICAGO-MIDWAY CLOUDY    33  23  66 SW5       30.31R WCI  29
MOLINE         CLOUDY    32  20  61 E3        30.30S
ROCKFORD       CLOUDY    28  21  75 S3        30.33R
PEORIA         PTCLDY    34  20  56 CALM      30.29F
$$

NOTE: "FAIR" INDICATES FEW OR NO CLOUDS BELOW 12,000 FEET WITH NO
SIGNIFICANT WEATHER AND/OR OBSTRUCTIONS TO VISIBILITY. WIND
SPEEDS ARE IN MILES-PER-HOUR.



USA.gov is the U.S. government's official web portal to all federal, state and local government web resources and services.